Wind_Speed
36 35 35 35 34 34 35 35 36 36 36 38 39 40 41 43 44 44 45 46 47 48 49 51 52 53 54 55 57 58 59 57 56 56 55 55 55 55
36 36 35 35 35 35 36 36 36 37 37 39 40 40 41 43 44 45 45 46 47 49 50 52 54 55 55 56 58 59 59 57 56 56 56 56 56 56
36 36 35 35 36 36 36 36 37 38 38 39 40 40 41 43 44 45 45 46 48 50 51 53 54 55 56 57 59 59 58 57 57 57 57 57 58 58
36 36 36 36 36 36 36 36 37 38 38 39 39 40 42 43 44 44 46 47 49 50 52 54 55 56 57 58 59 59 58 58 58 58 59 59 59 59
36 36 36 36 35 36 37 37 38 38 38 39 40 41 42 43 44 45 46 48 49 50 53 54 55 56 57 58 59 59 59 59 59 59 59 60 60 60
37 35 35 35 36 36 37 38 38 38 39 40 40 41 42 43 44 45 47 48 49 51 53 55 56 57 57 58 59 60 60 59 60 60 60 60 59 59
36 35 35 35 36 37 37 37 38 38 39 40 40 41 42 43 44 45 46 48 50 53 54 56 56 56 57 58 59 60 60 60 60 60 60 59 58 57
35 35 36 37 36 36 37 37 38 38 38 40 40 40 41 42 43 45 47 49 51 53 55 55 55 56 57 58 60 60 60 60 60 60 59 57 56 55
35 36 36 36 36 36 36 37 37 37 38 39 39 40 41 42 44 46 47 49 51 52 54 55 56 57 58 59 60 60 60 59 59 58 57 56 54 53
36 36 36 36 35 36 36 36 36 36 37 37 38 39 40 42 44 46 47 49 50 52 54 55 56 57 58 59 59 59 59 58 57 55 54 53 51 49
36 36 36 35 34 35 35 35 35 36 37 37 38 39 40 42 43 45 47 48 50 52 54 55 56 57 58 58 58 58 58 57 55 53 51 50 48 46
36 35 34 34 34 34 34 35 36 36 36 36 38 39 40 41 42 44 46 48 51 53 54 55 56 56 56 57 58 57 56 54 52 50 48 47 46 45
36 35 34 34 34 33 34 35 35 35 36 37 38 39 40 40 42 44 47 49 52 54 55 55 55 56 56 56 56 55 54 51 50 48 47 46 44 43
34 33 34 34 33 33 33 34 34 35 36 36 37 38 39 40 42 45 47 51 53 54 54 54 55 55 55 54 53 53 52 50 48 46 46 44 43 40
33 33 33 33 32 32 33 33 33 34 35 36 36 37 39 41 43 45 48 51 53 54 53 54 54 54 54 53 51 50 49 48 47 45 45 44 41 38
33 33 32 32 32 32 32 32 33 33 33 34 35 37 39 42 44 46 49 51 52 52 52 53 53 52 52 51 50 48 47 46 45 45 44 42 39 35
32 31 30 30 31 31 32 31 31 31 32 33 34 36 39 42 44 47 48 50 50 50 51 51 51 51 51 49 48 48 46 45 45 44 41 39 35 32
30 29 29 29 29 30 30 30 30 31 31 32 35 38 40 42 44 46 47 48 49 49 49 49 50 51 50 48 47 46 46 45 44 42 39 36 33 30
28 28 28 28 28 28 28 28 29 29 31 33 36 38 40 42 44 45 46 47 48 48 47 48 49 49 48 46 45 44 44 44 43 40 37 34 31 29
28 27 27 26 26 26 26 27 28 29 32 34 36 38 40 41 43 44 45 45 46 46 47 48 49 48 46 44 44 44 43 42 41 38 36 33 30 29
26 25 24 24 24 25 26 26 27 29 31 33 36 38 39 41 42 43 43 44 45 45 46 47 48 46 44 43 43 43 42 40 39 37 34 31 29 27
25 24 23 23 24 24 25 26 27 29 31 33 35 37 38 40 41 41 42 43 44 45 46 46 46 44 43 42 42 42 42 41 39 36 32 29 27 25
24 23 23 23 23 24 25 26 27 29 31 33 34 36 37 38 39 40 41 42 43 44 44 45 44 43 42 42 42 42 41 40 38 34 30 27 24 22
Wind_Direction
254 258 262 266 270 275 279 282 285 287 290 293 296 298 300 303 305 307 308 310 311 311 311 312 313 314 314 314 315 315 315 315 314 313 312 312 311 310
255 259 263 267 271 275 279 282 284 287 290 294 296 298 300 303 305 306 308 309 311 311 312 313 314 314 314 314 315 316 316 315 314 313 312 311 311 310
255 260 264 268 272 275 279 282 284 286 290 294 296 298 300 303 304 306 308 310 311 311 312 314 314 314 314 315 316 317 316 315 314 313 312 311 311 310
256 260 264 268 272 275 279 283 285 288 291 294 296 299 301 303 304 306 308 310 312 312 314 315 315 315 315 316 317 317 316 315 314 313 312 312 311 310
256 261 266 269 273 276 280 284 286 289 291 294 297 299 301 303 305 307 309 310 312 313 314 315 315 315 316 317 318 317 317 315 314 313 313 312 312 311
257 262 266 270 273 277 282 284 286 288 291 294 297 299 302 304 306 307 309 311 312 313 315 316 316 316 317 318 318 318 317 316 315 315 314 314 313 313
258 263 267 271 276 279 283 284 286 289 292 294 297 299 302 304 306 308 309 311 312 314 316 317 317 318 318 319 319 319 319 317 316 316 315 315 314 314
259 263 267 272 276 280 283 285 287 289 292 295 297 300 303 305 306 307 309 311 313 315 316 317 318 319 319 319 320 320 320 319 318 317 317 316 316 315
259 263 268 272 276 280 282 286 289 291 293 296 299 301 303 305 306 308 310 312 314 316 318 318 319 319 319 320 321 321 321 320 319 318 318 318 317 317
259 264 268 272 275 279 283 286 289 292 295 297 300 303 304 306 307 309 311 313 315 317 319 319 319 320 320 321 321 322 322 322 321 320 320 320 320 320
260 265 269 271 276 279 283 286 289 292 296 299 302 304 304 306 308 309 313 315 317 318 320 320 320 321 321 322 323 323 323 323 323 323 323 323 323 323
261 266 268 271 276 280 283 287 290 294 297 299 302 304 305 307 308 311 314 316 318 319 320 320 321 322 323 323 323 324 324 324 324 325 325 325 325 325
261 265 269 272 276 281 285 289 292 294 298 300 302 304 305 307 310 312 315 317 319 320 321 321 322 323 324 325 325 325 326 326 326 326 326 327 327 327
261 265 270 273 277 281 286 291 293 295 298 300 302 304 306 308 311 313 315 317 319 321 322 322 323 324 325 326 326 326 327 327 327 327 327 328 328 328
260 265 269 272 277 282 286 290 293 295 298 300 302 304 306 309 312 314 316 318 320 321 322 323 324 325 326 327 327 328 328 328 328 328 328 328 329 328
261 263 267 272 277 282 286 289 293 295 298 300 303 305 308 311 313 315 318 320 321 322 323 324 325 326 327 328 329 329 329 329 330 329 329 329 329 329
259 261 267 272 277 282 287 290 292 295 298 300 303 306 309 312 314 317 319 321 323 324 324 325 327 328 329 329 330 330 331 331 331 330 330 330 330 330
258 262 266 272 277 283 287 290 293 295 298 300 303 307 311 313 315 318 321 323 324 325 326 327 328 330 330 330 331 331 332 332 332 331 331 331 331 330
257 262 266 272 277 282 286 290 294 297 299 302 305 309 312 314 317 319 322 323 325 326 327 328 329 330 330 330 331 332 333 333 333 332 332 331 331 330
257 262 267 272 276 281 286 291 294 297 300 303 307 311 313 316 319 321 323 324 325 326 327 329 331 331 331 331 332 333 334 334 334 333 332 331 331 332
255 260 265 270 274 280 286 291 294 298 301 305 309 312 315 318 321 322 324 325 326 327 329 330 332 333 332 332 333 333 334 335 335 334 333 331 331 332
251 256 263 269 273 279 286 292 296 300 303 307 311 314 317 320 322 324 325 326 327 328 330 332 334 334 334 334 334 334 335 335 335 335 333 333 333 334
248 254 261 268 272 279 287 293 297 300 304 309 312 315 319 322 324 325 327 328 329 330 332 333 334 335 335 334 335 336 336 336 337 337 336 335 335 337
Height
5750 5751 5752 5752 5752 5752 5751 5749 5748 5745 5743 5739 5736 5732 5727 5723 5718 5713 5707 5702 5695 5689 5682 5675 5667 5659 5651 5642 5633 5624 5614 5605 5596 5588 5580 5572 5564 5556
5743 5744 5745 5745 5745 5744 5743 5742 5739 5737 5735 5732 5728 5724 5720 5715 5710 5704 5699 5693 5686 5680 5673 5665 5657 5649 5640 5632 5623 5613 5603 5594 5585 5576 5568 5560 5552 5543
5735 5737 5737 5737 5737 5737 5735 5734 5732 5729 5727 5724 5720 5716 5712 5707 5702 5696 5690 5684 5678 5671 5663 5655 5647 5639 5630 5621 5611 5602 5592 5582 5573 5565 5556 5547 5538 5530
5728 5729 5730 5730 5730 5729 5728 5726 5724 5721 5719 5716 5712 5708 5703 5699 5693 5688 5682 5675 5669 5661 5654 5646 5637 5628 5619 5610 5600 5590 5581 5571 5562 5552 5543 5534 5525 5516
5720 5721 5722 5722 5722 5721 5720 5718 5716 5713 5711 5707 5704 5700 5695 5690 5684 5679 5673 5666 5659 5652 5644 5635 5627 5618 5608 5599 5589 5579 5569 5560 5550 5540 5530 5521 5511 5501
5712 5714 5714 5714 5714 5713 5712 5710 5708 5705 5703 5699 5696 5691 5686 5681 5676 5670 5664 5657 5650 5642 5633 5625 5616 5607 5598 5588 5579 5568 5558 5547 5537 5527 5517 5507 5497 5488
5705 5706 5707 5707 5706 5705 5704 5702 5700 5697 5694 5691 5687 5683 5678 5673 5667 5661 5654 5648 5640 5632 5623 5615 5606 5597 5587 5577 5567 5556 5546 5535 5525 5514 5504 5494 5484 5474
5697 5698 5699 5699 5698 5697 5696 5694 5692 5689 5686 5683 5679 5674 5669 5664 5658 5652 5645 5639 5631 5624 5613 5604 5595 5586 5576 5566 5556 5545 5534 5523 5512 5502 5491 5481 5471 5461
5689 5690 5691 5691 5690 5689 5688 5686 5684 5681 5678 5675 5671 5666 5661 5655 5650 5643 5636 5628 5620 5612 5603 5594 5584 5575 5565 5555 5544 5534 5523 5511 5500 5490 5479 5469 5459 5450
5681 5682 5683 5683 5682 5682 5680 5678 5676 5673 5670 5666 5662 5657 5652 5646 5640 5634 5626 5619 5611 5602 5593 5585 5574 5564 5554 5544 5533 5522 5511 5500 5489 5478 5468 5458 5448 5439
5673 5674 5675 5675 5675 5674 5672 5670 5668 5665 5661 5657 5653 5648 5643 5637 5631 5625 5617 5610 5602 5593 5584 5575 5565 5555 5544 5533 5522 5511 5500 5489 5478 5468 5458 5448 5439 5431
5665 5666 5667 5667 5667 5665 5664 5662 5660 5656 5653 5649 5644 5639 5634 5628 5622 5616 5609 5601 5593 5585 5575 5565 5555 5545 5535 5524 5512 5501 5490 5479 5469 5459 5449 5440 5431 5423
5657 5659 5659 5659 5659 5657 5656 5654 5651 5648 5645 5641 5636 5631 5626 5620 5614 5607 5600 5592 5584 5575 5565 5555 5545 5535 5524 5514 5503 5491 5481 5471 5461 5451 5442 5433 5424 5416
5650 5651 5651 5651 5650 5649 5648 5646 5643 5640 5636 5632 5628 5623 5618 5612 5606 5599 5591 5583 5575 5565 5555 5546 5536 5526 5515 5505 5495 5483 5472 5463 5453 5444 5435 5426 5418 5409
5641 5642 5643 5643 5642 5641 5639 5637 5635 5632 5628 5624 5620 5615 5610 5604 5598 5590 5582 5574 5565 5556 5546 5537 5527 5517 5506 5497 5486 5476 5466 5456 5446 5437 5428 5420 5412 5403
5633 5634 5635 5634 5634 5633 5632 5629 5627 5624 5620 5616 5612 5608 5602 5596 5589 5582 5574 5565 5557 5547 5537 5528 5518 5508 5498 5488 5478 5468 5458 5449 5440 5431 5422 5413 5405 5398
5625 5626 5627 5627 5627 5626 5624 5622 5619 5616 5613 5609 5605 5600 5594 5588 5581 5574 5566 5557 5548 5539 5529 5519 5509 5500 5490 5481 5471 5461 5451 5442 5433 5424 5416 5407 5400 5393
5618 5619 5620 5620 5619 5618 5617 5614 5612 5609 5606 5602 5598 5592 5586 5580 5573 5565 5557 5549 5540 5531 5521 5511 5502 5492 5482 5473 5464 5454 5445 5436 5427 5418 5410 5402 5396 5389
5610 5612 5613 5613 5612 5611 5609 5607 5605 5602 5598 5595 5590 5585 5579 5572 5565 5557 5549 5541 5532 5523 5514 5505 5495 5485 5476 5467 5458 5449 5439 5430 5421 5412 5405 5398 5391 5385
5603 5605 5605 5605 5605 5604 5603 5601 5598 5595 5591 5587 5583 5577 5571 5564 5557 5550 5542 5533 5525 5516 5507 5498 5489 5479 5469 5461 5452 5443 5434 5425 5416 5408 5400 5393 5387 5381
5596 5597 5598 5598 5598 5597 5596 5594 5591 5588 5584 5580 5575 5570 5564 5557 5550 5542 5534 5526 5518 5509 5501 5492 5482 5472 5463 5454 5446 5437 5429 5421 5412 5404 5397 5390 5383 5377
5589 5590 5591 5591 5591 5591 5589 5587 5584 5581 5577 5573 5568 5562 5556 5550 5542 5535 5527 5519 5511 5503 5494 5485 5475 5466 5458 5449 5441 5432 5424 5415 5408 5400 5393 5386 5380 5374
5582 5584 5585 5585 5585 5584 5583 5581 5578 5574 5570 5566 5561 5555 5549 5543 5536 5528 5521 5513 5505 5496 5487 5479 5470 5461 5452 5444 5436 5427 5419 5410 5403 5395 5389 5383 5377 5372